Regional Weather Roundup
Issued by NWS

Home | Current Version | Previous Version | Graphics & Text | Print | Product List | Glossary On
Versions: 1 2 3 4 5 6 7 8 9 10 11 12 13 14 15 16 17 18 19 20 21 22 23 24 25 26 27 28 29 30 31 32 33 34 35 36 37 38 39 40 41 42 43 44 45 46 47 48 49 50
336
ASUS43 KOAX 241702
RWRNE

WEATHER ROUNDUP FOR NEBRASKA
NATIONAL WEATHER SERVICE OMAHA NE
1200 PM CDT MON APR 24 2017

NOTES: SATELLITE DATA IS BEING USED TO AUGMENT CLOUD COVER ABOVE
       12000 FEET.
       "FAIR" INDICATES FEW OR NO CLOUDS BELOW 12,000 FEET WITH NO
       SIGNIFICANT WEATHER AND/OR OBSTRUCTIONS TO VISIBILITY.

  * THESE STATIONS DO NOT REPORT WEATHER SUCH AS RAIN...SNOW OR FOG.

NEZ001>004-019>022-054>056-241800-
NEBRASKA PANHANDLE

CITY           SKY/WX    TMP DP  RH WIND       PRES   REMARKS
SCOTTSBLUFF    MOSUNNY   62  36  37 NW16G25   29.66S
ALLIANCE       CLOUDY    61  37  41 MISG      29.63S
CHADRON        MOSUNNY   59  44  57 NE8       29.62F
KIMBALL        SUNNY     60  38  44 N15G24    29.69S
SIDNEY         SUNNY     62  40  44 NW20G31   29.66R
$$

NEZ057>060-069>072-079>082-241800-
SOUTHWEST NEBRASKA

CITY           SKY/WX    TMP DP  RH WIND       PRES   REMARKS
NORTH PLATTE   CLOUDY    66  47  50 NW7       29.54F
IMPERIAL       CLOUDY    67  40  37 NW23G30   29.59S
LEXINGTON      CLOUDY    62  39  43 W8        29.57R
MCCOOK         MOSUNNY   70  42  36 NW16G26   29.55R
OGALLALA       SUNNY     68  41  36 NW25G31   29.60R
$$

NEZ005>010-023>029-035>040-094-241800-
NORTH CENTRAL NEBRASKA

CITY           SKY/WX    TMP DP  RH WIND       PRES   REMARKS
VALENTINE      CLOUDY    52  38  58 NW18      29.60S
AINSWORTH      CLOUDY    49  40  73 N21G26    29.58R
BROKEN BOW     CLOUDY    59  39  47 SW9       29.55S
O`NEILL        PTSUNNY   60  38  43 S15       29.57R
ORD            MOSUNNY   62  40  44 S12       29.55R
THEDFORD       PTSUNNY   56  42  61 NW18G28   29.60R
$$

NEZ041-046>049-061>064-073>077-083>087-241800-
SOUTH CENTRAL NEBRASKA

CITY           SKY/WX    TMP DP  RH WIND       PRES   REMARKS
GRAND ISLAND   CLOUDY    63  38  39 SW16G26   29.56F
AURORA         CLOUDY    64  37  36 S21G30    29.57S
HASTINGS       CLOUDY    65  38  36 S14G26    29.56F
HOLDREGE       CLOUDY    59  37  43 CALM      29.53F
KEARNEY *      CLOUDY    59  36  41 SW14      29.55F
YORK           SUNNY     68  37  32 S30G40    29.58F
$$

NEZ011>018-030>034-042>045-241800-
NORTHEAST NEBRASKA

CITY           SKY/WX    TMP DP  RH WIND       PRES   REMARKS
NORFOLK        PTSUNNY   65  37  35 S23G33    29.57F
ALBION         CLOUDY    65  39  37 S15G23    29.55F
BLAIR          PTSUNNY   67  35  30 S32G38    29.64F
FREMONT        SUNNY     67  38  33 SE23G31   29.63F
TEKAMAH        MOSUNNY   68  40  35 S24G33    29.65F
WAYNE          MOSUNNY   65  41  40 S23G32    29.59F
$$

NEZ050>053-065>068-078-088>093-241800-
SOUTHEAST NEBRASKA

CITY           SKY/WX    TMP DP  RH WIND       PRES   REMARKS
LINCOLN        SUNNY     70  39  32 S32G41    29.61F
OMAHA EPPLEY   PTSUNNY   67  34  29 S31G38    29.66F
BEATRICE       SUNNY     69  40  35 S26G37    29.62F
FALLS CITY     MOSUNNY   67  36  31 S23G35    29.71F
NEBRASKA CITY  MOSUNNY   68  27  21 S26G39    29.68F
PLATTSMOUTH    MOSUNNY   68  28  22 SE25G36   29.67F
$$

NEZ044-045-051>053-067-241800-
OMAHA AREA

CITY           SKY/WX    TMP DP  RH WIND       PRES   REMARKS
OMAHA EPPLEY   PTSUNNY   67  34  29 S31G38    29.66F
BLAIR          PTSUNNY   67  35  30 S32G38    29.64F
FREMONT        SUNNY     67  38  33 SE23G31   29.63F
MILLARD        MOSUNNY   68  39  34 S16G28    29.65F
OFFUTT AFB     PTSUNNY   67  35  30 S26G35    29.65F
PLATTSMOUTH    MOSUNNY   68  28  22 SE25G36   29.67F
WAHOO          FAIR      68  36  30 S29G37    29.63F
$$




USA.gov is the U.S. government's official web portal to all federal, state and local government web resources and services.